DECAYED

RESURS P1 DEB, 60224 (Decayed)

Orbit data source: Space-Track

RESURS P1 DEB, 60224 was space debris in LEO originally from a Commonwealth of Independent States-origin launch on Tue, 25 Jun 2013 UTC launched from the Tyuratam Missile And Space Complex (TTMTR). Debris objects in space refer to the collection of defunct objects orbiting the Earth. Examples of debris include non-operational satellites, rocket bodies, and fragments generated from explosions, collisions, or faulty payload assembly.

Not visible in the next 10 days
RESURS P1 DEB details
Identifier
60224, 2013-030N
Orbit
Decayed
Last TLE update5 months ago
Origin
Flag of CISTSSKBP? (CIS)
ManufacturerTSSKBP?
MissionDecayed spacecraft
Bus & MotorUnknown
MassUnknown
Launch date (UTC)
2013-06-25 (11 years ago)
Launch vehicleUnknown
Launch site
Tyuratam Missile And Space Complex (TTMTR)
Object type
Payload
Rocket body
Debris
Shape & HBRUnknown
Radar Cross SectionSmall (<0.1 m²)

Expand to show TLE details & history

TLE from 5 months ago
0 RESURS P1 DEB
1 60224U 13030N   24193.63146825  .07363131  21939-5  40747-2 0  9992
2 60224  96.9932 244.1553 0015636 266.5088  93.4413 16.19184145  1436
Epoch: 2024-07-11T15:09Z
Definitive object data (Epoch: 2024-07-11T15:09:18.856Z)
Latitude-0.00006°
Longitude86.80741°
Altitude225.639 km
Speed7.771 km/s
True Right ascension16h 16m 37s
True Declination0° 00' 00"
Sunlit
Object was in full shadow at TLE epoch
Visualization observer readout
Observer readout values are unavailable because the object's trajectory could not be propagated. This is usually caused when the trajectory data is faulty or the object's orbit has decayed.
Visualization observer readout
Observer readout values are unavailable because the object's trajectory could not be propagated. This is usually caused when the trajectory data is faulty or the object's orbit has decayed.
Orbital elements
Apogee altitude228.9 km
Perigee altitude208.27 km
Semi-major axis6,596.722 km
Eccentricity0.0015636
Inclination96.9932°
RAAN244.1553°
Arg. of periapsis266.5088°
True anomaly93.62013°
Mean anomaly93.4413°
Eccentric anomaly93.53072°
Mean motion4.05089 °/min
BSTAR0.0040747
Orbital period88.87 mins
Loading maneuver chart data...

RESURS P1 DEB Visibility forecast

Observer location: undefined°, undefined

This satellite is decayed
Span
Click to sort rows by Start time (UTC) header in descending order
Start Az.
Max El. time (UTC)
Max El. Az.
Max El.
End time (UTC)
End Az.
|